Weather in Sredniy Ubukun

Russia / Republic of Buryatia     51°27′32″N   106°43′16″E
temp.,
°C
wind,
m/s
gust,
m/s
humid.,
%
clouds,
%
prec.,
mm/h
press.,
hPa
HPBL,
m
13 june, sun
sun1323:00+13nw116199 0.0 100819
02:00+11nw2268100 0.0 100710
05:00+11nw1166100 0.0 100610
08:00+13e1169100 0.4 1006186
11:00+18nw124695 0.0 10051374
14:00+20nw764097 0.0 10041601
17:00+18nw7842100 0.0 10051174
20:00+12nw51075100 0.0 1008739
14 june, mon
mon1423:00+9nw3883100 0.0 1011652
02:00+10nw287297 0.0 1010811
05:00+9nw2576100 0.0 1010289
08:00+12nnw3659100 0.0 1009868
11:00+17wnw2441100 0.0 10071545
14:00+18w3334100 0.0 10062056
17:00+18wsw2337100 0.0 10051140
20:00+15sw3458100 0.0 1006105
15 june, tue
tue1523:00+11nw71570100 0.0 1009557
02:00+9nw9148399 0.0 1011852
05:00+7nw91680100 0.1 1013938
08:00+8nnw81268100 0.1 10161084
11:00+11nw794911 0.0 10161560
14:00+15nw693234 0.0 10142373
17:00+15nw78320 0.0 10132134
20:00+12wnw35445 0.0 1014287
16 june, wed
wed1623:00+7wnw235986 0.0 101668
02:00+5w22745 0.0 101516
05:00+5wnw228696 0.0 101539
08:00+8wnw4874100 0.1 10151015
11:00+7wnw61182100 0.2 1015918
14:00+12nw7952100 0.3 10131777
17:00+12nw7105590 0.1 10131487
20:00+10nw5116720 0.1 10131024
17 june, thu
thu1723:00+7wnw23837 0.0 1014106
02:00+10wnw3117373 0.0 1014629
05:00+7wnw368478 0.0 1014183
08:00+13nw712595 0.0 10121246
11:00+17nw8114320 0.0 10111854
14:00+19nnw8103766 0.0 10102382
17:00+20nw712330 0.0 10082370
20:00+17wnw612445 0.0 1008700